Simultaneous Nadir Overpasses (SNOs) Predictions

Prediction of SNOs between GOES-14 and NOAA-20 Satellite Orbit:

Table of predicted SNOs for the next 14.0 days since TLE Epoch: 3/29/2019
Index Date Time (GOES-14) GOES-14 Lat,Lon NOAA-20 Lat,Lon Distance(km) Time Diff (sec)
1 03/30/2019 08:24:17 0.11,-104.40 0.27,-105.05 74.22 80
2 03/31/2019 08:08:12 0.11,-104.41 -0.76,-100.52 442.74 80
3 04/01/2019 20:30:09 -0.11,-104.33 -0.43,-105.83 170.59 80
4 04/02/2019 20:08:43 -0.12,-104.33 0.54,-101.29 345.41 80
5 04/04/2019 08:30:31 0.12,-104.41 0.59,-106.57 246.72 80
6 04/05/2019 08:14:27 0.12,-104.41 -0.44,-102.05 270.40 80
7 04/06/2019 20:36:22 -0.12,-104.35 -0.80,-107.34 341.05 80
8 04/07/2019 20:14:58 -0.12,-104.35 0.23,-102.81 174.82 80
9 04/09/2019 08:36:45 0.12,-104.40 0.96,-108.08 419.55 80
10 04/10/2019 08:20:41 0.12,-104.41 -0.07,-103.56 97.25 80




NCC Satellite Simultaneous Nadir Overpasses (SNOs) Prediction Service
